This demonstration page uses our WeatherBlox Daily Observations layout. Learn more.

Left ArrowRight Arrow

39.95238, -75.16362

Hourly Observations for June 8, 2020

Temp ( °F °C ) Dew Point ( °F °C ) Humidity (%) Winds ( mph kmh ) Pressure ( in mb ) Visibility ( mi km ) Precip ( " mm )
12:54 am 00:54 Mostly Clear 67 19.4 43 6.1 42 42 N 9 15 30.01 1016 10 16 0.00 0.00
1:54 am 01:54 Clear 64 17.8 43 6.1 46 46 N 6 9 30.02 1017 10 16 0.00 0.00
2:54 am 02:54 Clear 64 17.8 43 6.1 46 46 NNW 7 11 30.02 1017 10 16 0.00 0.00
3:54 am 03:54 Clear 61 16.1 44 6.7 54 54 N 5 7 30.01 1016 10 16 0.00 0.00
4:54 am 04:54 Clear 60 15.6 43 6.1 53 53 N 8 13 30.02 1017 10 16 0.00 0.00
5:54 am 05:54 Mostly Sunny 59 15 43 6.1 56 56 N 8 13 30.03 1017 10 16 0.00 0.00
6:54 am 06:54 Mostly Sunny 61 16.1 44 6.7 54 54 N 12 19 30.05 1018 10 16 0.00 0.00
7:54 am 07:54 Mostly Sunny 64 17.8 44 6.7 48 48 NNE 6 9 30.06 1018 10 16 0.00 0.00
8:54 am 08:54 Mostly Sunny 67 19.4 45 7.2 45 45 N 10 17 30.07 1018 10 16 0.00 0.00
9:54 am 09:54 Mostly Sunny 70 21.1 46 7.8 42 42 N 7 11 30.07 1018 10 16 0.00 0.00
10:54 am 10:54 Mostly Sunny 73 22.8 45 7.2 37 37 NE 8 13 30.07 1018 10 16 0.00 0.00
11:54 am 11:54 Partly Cloudy 74 23.3 45 7.2 36 36 VRB 7 11 30.06 1018 10 16 0.00 0.00
12:54 pm 12:54 Partly Cloudy 75 23.9 41 5 29 29 WNW 8 13 30.05 1018 10 16 0.00 0.00
1:54 pm 13:54 Partly Cloudy 76 24.4 42 5.6 30 30 WSW 9 15 30.04 1017 10 16 0.00 0.00
2:54 pm 14:54 Partly Cloudy 77 25 43 6.1 30 30 N 7 11 30.02 1017 10 16 0.00 0.00
3:54 pm 15:54 Partly Cloudy 78 25.6 42 5.6 28 28 undefined N/A 30.01 1016 10 16 0.00 0.00
3:57 pm 15:57 Partly Cloudy 78 25.6 43 6.1 29 29 NNW 13 20 30.01 1016 10 16 0.00 0.00
4:54 pm 16:54 Partly Cloudy 78 25.6 44 6.7 30 30 N 6 9 29.99 1016 10 16 0.00 0.00
5:54 pm 17:54 Partly Cloudy 79 26.1 44 6.7 29 29 NW 9 15 29.98 1015 10 16 0.00 0.00
6:54 pm 18:54 Partly Cloudy 79 26.1 45 7.2 30 30 NW 7 11 29.98 1015 10 16 0.00 0.00
7:54 pm 19:54 Partly Cloudy 78 25.6 43 6.1 29 29 NW 6 9 29.98 1015 10 16 0.00 0.00
8:54 pm 20:54 Mostly Clear 76 24.4 46 7.8 35 35 W 7 11 29.97 1015 10 16 0.00 0.00
9:54 pm 21:54 Partly Cloudy 73 22.8 50 10 44 44 SW 6 9 30.00 1016 10 16 0.00 0.00
10:54 pm 22:54 Partly Cloudy 72 22.2 50 10 46 46 SW 8 13 30.01 1016 10 16 0.00 0.00
11:54 pm 23:54 Partly Cloudy 70 21.1 50 10 49 49 SW 8 13 30.01 1016 10 16 0.00 0.00

Powered by AerisWeather